星链-37679(STARLINK-37679)

导读

STARLINK-37679(NORAD编号69229)是美国SpaceX公司星链(Starlink)星座中的一颗低轨通信卫星,属于Starlink Gen2(第二代星链)卫星批次,旨在为全球提供高速卫星互联网接入服务。该卫星运行在近地轨道,遵循星链星座标准设计,配备自动避撞系统,可根据地面指令调整轨道规避空间碎片,保障星座运行安全。作为星链大规模组网的组成部分,它与其他数千颗卫星共同构建覆盖全球的低轨通信网络,支持偏远地区网络接入、移动场景互联等应用。目前公开轨道数据显示其正常在轨运行,参与星座服务提供。

基本信息
目录编号:
69229
目录名称:
STARLINK-37679
国际标识:
2026-115U
轨道中心:
EARTH
卫星名称:
星链-37679
卫星全名:
星链-37679(STARLINK-37679)
卫星状态:
在轨 (已飞行101 天)
发射日期:
2026-05-26 UTC
国别 :
美国 (US)
星等 :
--
轨道信息
数据来源 国际轨道数据 AOE轨道数据
星历时间 2026-09-03T19:25:51+0800
18小时前
查看轨道信息
2026-09-03T07:00:00+0800
1天前
查看轨道信息
半长轴 6843.673km 6843.724km
偏心率 0.000116 0.0001291
轨道倾角 97.285° 97.283°
近地点辐角 114.832° 98.375°
升交点赤经 262.845° 262.330°
平近点角 245.304° 284.279°
近地点 464.742km 464.703km
远地点 466.33km 466.471km
周期 93.906分钟 93.907分钟
每日圈数 15.334477 15.334304
详细信息
固有亮度:
5
最大亮度:
2.5
卫星平台:
Starlink V1.0
覆盖范围:
全球
运营商:
太空探索技术公司
运营商所在国:
美国
制造商(研发单位):
太空探索技术公司
制造商所在国:
美国
使用方式:
暂无
卫星简介
Starlink 计划是 SpaceX 推出的全球卫星互联网项目,通过发射低轨道卫星,为全球尤其是偏远地区提供高速、低延迟的互联网服务。自 2019 年起,Starlink 已部署数千颗卫星,旨在缩小全球数字鸿沟,推动互联网普及。该项目还为军事、航空等行业提供通信支持,带来广泛经济效益。
2D轨道图
3D轨道图
轨道高度分析图
轨道倾角分析图
轨道综合分析图
查看轨道综合分析图
交会数据列表
事件ID 空间交会对象 最接近时刻(TCA) 交会距离 交会风险概率(CRP) 交会风险指数(CRI) 操作
CDM_260904-121406-217806-922921
2026-09-04T
12:14:46+0000
0.787 km
远距离
6.040371E-5 中风险 0.71
CDM_260829-163105-326306-922921
2026-08-29T
16:31:55+0000
1.814 km
极远距离
3.534054E-6 低风险 0.46
CDM_260903-181106-538606-922921
2026-09-03T
18:11:45+0000
2.369 km
极远距离
1.930793E-6 低风险 0.41
CDM_260829-180505-326306-922921
2026-08-29T
18:05:51+0000
2.725 km
极远距离
1.452132E-6 低风险 0.38
CDM_260904-212805-719306-922922
2026-09-04T
21:28:34+0000
2.868 km
极远距离
8.836303E-7 极低风险 0.34